Wind_Speed
42 45 49 54 56 55 51 42 33 26 22 22 26 32 36 39 41 42 41 40 39 39 39 39 39 39 39 40 41 42 43 44 44 45 46 47 48 49 49 49 48 47 46 46 46 46 47 47 47 47 47 47 48 49 50 51 52 53 55 57 60 62 63 65 65 65 64 63 62 60 59 58 57 56 56 56 56 56 55 55 56 56 56 57 57 57
39 41 45 49 53 55 54 49 41 33 28 25 23 25 28 31 33 34 34 35 36 37 38 38 38 38 39 40 41 42 43 44 45 46 47 48 49 49 49 48 46 46 45 45 45 46 46 46 46 46 46 47 48 49 50 52 54 56 58 60 62 63 64 64 63 62 61 60 59 58 57 56 56 55 56 56 56 56 56 57 57 57 58 58 59 59
38 39 41 45 48 51 52 52 48 42 36 30 26 23 23 25 27 28 30 33 35 36 37 37 37 38 39 40 41 42 43 44 45 46 47 48 49 49 49 49 48 47 46 46 46 46 46 46 47 47 48 49 50 51 53 55 56 58 60 60 61 61 61 60 59 58 57 56 56 55 55 55 55 55 56 56 57 57 58 58 59 59 60 60 61 61
36 36 38 40 43 46 48 50 50 47 42 37 32 27 25 26 27 29 32 34 36 37 38 39 39 40 41 42 42 43 44 44 45 46 47 49 50 51 51 51 50 48 47 47 47 47 47 47 48 49 50 51 53 54 55 56 57 57 57 57 57 56 56 55 55 55 55 55 55 55 55 56 56 57 57 58 59 59 60 60 61 61 62 62 63 64
34 33 34 35 38 40 43 46 47 47 46 43 39 36 33 32 33 34 36 37 38 39 40 41 42 43 44 44 44 44 44 45 45 47 48 50 52 53 52 51 49 48 47 46 46 47 48 49 50 51 52 53 54 54 55 55 55 54 54 54 53 53 54 54 54 54 55 55 56 56 57 57 58 59 59 60 60 61 61 62 62 63 64 64 65 65
30 29 29 31 33 35 37 40 43 45 46 45 44 42 41 40 40 40 41 41 41 42 42 43 44 44 44 44 44 44 44 45 46 48 49 51 52 52 51 49 48 47 47 47 48 49 50 51 53 53 54 54 54 54 53 53 53 53 53 53 53 54 54 55 55 56 56 57 58 58 59 59 60 60 61 61 62 62 63 63 64 64 65 66 66 67
27 26 25 26 28 30 31 34 36 39 42 44 44 44 43 43 43 43 42 42 42 43 43 44 44 43 43 43 43 44 45 46 47 49 50 50 50 50 49 48 48 48 48 49 50 51 52 52 53 53 53 53 52 52 52 52 52 53 53 54 54 55 56 56 57 57 58 58 59 59 60 60 61 61 62 62 63 63 64 64 65 66 66 67 67 68
24 23 22 23 24 25 26 27 29 33 36 39 41 42 42 42 42 41 41 41 42 42 42 42 42 41 41 42 43 45 46 47 48 49 49 48 48 47 47 47 47 47 48 48 49 50 50 51 51 51 51 51 51 52 52 53 53 54 55 55 56 56 57 57 58 58 59 59 60 60 61 61 61 62 62 63 63 64 65 65 66 66 67 68 68 69
22 22 21 21 21 22 22 23 24 27 31 34 36 38 38 39 39 39 39 40 40 40 40 40 40 41 41 43 44 45 46 47 48 47 46 45 45 44 44 44 45 45 45 46 47 47 48 49 49 50 51 51 52 53 53 54 55 55 56 56 57 57 58 58 59 59 60 60 60 61 61 62 62 63 63 64 64 65 65 66 67 67 68 69 69 70
21 21 21 21 21 21 22 22 23 25 28 30 33 34 35 36 37 37 38 38 39 39 40 40 41 42 43 44 45 46 46 46 45 44 43 43 42 42 42 43 43 44 45 46 46 47 48 49 50 51 52 53 53 54 55 55 56 56 57 57 58 58 59 59 60 60 60 61 61 61 62 62 63 63 64 64 65 66 66 67 67 68 68 69 69 70
20 21 22 22 23 23 24 25 25 27 28 30 31 33 34 35 36 37 37 38 39 39 40 41 42 43 44 44 45 44 44 43 42 41 41 41 42 42 43 44 45 46 46 47 48 49 50 51 52 53 54 54 55 56 56 56 57 57 58 58 59 59 60 60 60 61 61 61 62 62 62 63 63 64 64 65 65 66 66 67 67 68 68 69 69 70
20 21 22 24 24 25 26 27 28 28 29 30 31 32 34 35 36 37 38 38 39 40 40 41 42 42 42 41 41 40 40 40 40 41 41 42 43 44 45 46 47 48 49 49 50 51 52 53 54 54 55 56 56 57 57 58 58 58 59 59 60 60 60 60 61 61 61 61 62 62 62 63 63 64 64 65 65 66 66 66 67 67 67 68 68 69
20 22 23 24 25 25 26 27 27 28 29 30 31 32 33 34 35 36 37 38 38 38 39 39 39 39 38 38 38 39 39 40 41 42 43 44 45 46 47 48 49 50 50 51 52 53 53 54 55 56 56 57 57 57 58 58 59 59 59 60 60 60 60 61 61 61 61 61 62 62 62 63 63 63 64 64 64 65 65 65 65 66 66 66 66 67
18 19 20 21 22 23 23 24 25 27 28 29 30 31 32 33 33 34 34 35 35 35 35 35 36 36 37 38 39 40 40 41 42 44 45 46 46 47 48 49 50 51 52 53 53 54 55 55 56 57 57 57 58 58 58 59 59 59 60 60 60 60 60 60 60 60 61 61 61 61 61 62 62 62 62 63 63 63 63 63 63 63 63 64 64 64
16 16 17 17 18 19 20 21 23 24 25 26 27 28 28 29 30 30 31 32 32 33 34 35 36 37 38 39 40 41 42 43 44 45 46 47 48 48 49 51 52 52 53 54 54 55 56 56 57 57 57 58 58 58 59 59 59 59 59 59 59 59 59 59 60 60 60 60 60 60 60 60 60 60 60 60 61 61 61 61 61 61 61 60 60 60
15 15 16 16 16 17 18 19 20 21 22 23 25 26 27 28 29 30 31 32 33 35 36 37 38 39 40 41 42 42 43 44 45 47 48 48 49 49 50 52 53 53 54 54 55 56 56 56 57 57 58 58 58 58 58 59 59 59 59 59 59 59 59 59 59 59 59 59 58 58 58 58 58 58 58 58 58 58 58 58 58 58 58 58 58 57
16 16 16 17 17 17 18 19 20 21 23 24 25 27 28 29 30 32 33 34 35 36 37 38 39 40 41 42 43 43 44 45 47 48 49 49 50 50 51 52 53 54 54 55 55 56 56 57 57 57 58 58 58 58 58 58 58 58 58 58 58 58 58 58 57 57 57 57 57 57 57 56 56 56 56 56 56 56 56 56 56 56 56 56 56 56
18 18 19 19 19 20 21 22 23 24 25 26 27 29 30 31 32 33 34 35 37 38 39 39 40 41 42 43 44 44 45 46 48 49 49 50 51 51 52 53 54 55 55 55 56 56 57 57 57 58 58 58 58 58 58 58 58 58 58 57 57 57 57 56 56 56 56 55 55 55 55 55 54 54 54 54 54 54 54 55 55 55 55 55 54 54
20 21 21 22 22 23 23 24 25 26 27 28 29 30 31 32 33 35 36 37 38 39 39 40 41 42 43 44 45 45 46 47 49 50 50 51 52 52 53 54 55 55 56 56 56 57 57 57 58 58 58 58 57 57 57 57 57 57 57 56 56 56 56 55 55 55 54 54 53 53 53 53 52 52 52 52 52 53 53 53 53 54 54 54 54 54
22 22 23 23 24 24 25 26 27 28 29 30 31 32 33 34 35 36 37 38 39 40 41 41 42 43 44 45 46 47 47 49 50 51 51 52 53 53 54 54 55 56 56 56 57 57 57 57 57 57 57 57 57 57 57 56 56 56 56 55 55 55 54 54 53 53 52 52 52 51 51 50 50 50 50 51 51 51 52 52 52 53 53 53 53 53
24 24 25 25 26 26 27 28 28 29 30 31 32 33 34 35 36 37 38 39 40 41 42 43 44 45 46 46 47 48 49 50 51 52 53 53 54 54 55 55 56 56 56 57 57 57 57 57 57 57 57 56 56 56 56 56 55 55 54 54 53 53 52 52 51 51 50 50 50 49 49 49 49 49 49 49 50 50 50 51 51 51 51 52 52 52
25 25 26 27 27 28 29 29 30 31 32 33 34 35 36 37 38 39 39 40 41 42 43 44 45 46 47 48 49 50 51 51 52 53 53 54 54 55 55 56 56 56 57 57 57 57 57 57 57 57 56 56 56 55 55 55 54 54 53 53 52 51 51 50 49 49 49 48 48 48 47 47 47 48 48 48 48 49 49 49 49 49 50 50 50 50
26 27 27 28 29 29 30 31 31 32 33 34 35 36 37 38 39 40 41 42 43 44 45 46 47 48 49 50 51 51 52 53 53 54 54 54 55 56 56 56 57 57 57 57 57 57 57 57 57 56 56 55 55 55 54 54 53 52 52 51 50 49 49 48 48 47 47 46 46 46 46 46 46 46 46 47 47 47 47 47 47 47 47 48 48 48
28 28 29 29 30 31 31 32 33 34 35 36 37 38 39 40 41 42 43 44 45 46 47 48 49 50 51 51 52 53 54 54 55 55 55 56 56 57 57 57 57 57 58 58 58 57 57 57 56 56 55 55 54 54 53 52 52 51 50 49 48 47 47 46 46 45 45 45 45 44 44 45 45 45 45 45 45 46 46 45 45 45 45 45 46 46
29 30 30 31 32 32 33 34 35 35 36 37 38 40 41 42 43 44 45 46 47 48 49 50 51 52 52 53 54 54 55 56 56 57 57 57 58 58 58 58 58 58 58 58 58 57 57 57 56 55 54 54 53 52 51 51 50 49 48 47 46 46 45 45 44 44 43 43 43 43 43 43 43 43 44 44 44 44 44 44 44 43 43 43 43 44
31 32 32 33 33 34 35 36 36 37 38 39 40 41 43 44 45 46 47 48 49 50 51 52 53 54 55 55 56 56 57 57 58 58 58 58 59 59 59 59 58 58 58 59 58 57 56 56 55 54 53 52 51 50 50 49 48 47 46 45 45 44 43 43 43 42 42 42 41 41 41 42 42 42 43 43 43 43 43 42 42 42 42 42 42 42
33 34 34 35 35 36 37 38 38 39 40 41 42 43 45 46 47 48 49 50 51 52 53 54 55 56 57 57 57 58 58 59 59 59 59 59 59 60 60 59 59 58 58 58 57 56 55 54 54 53 51 50 50 49 48 47 46 45 45 44 43 43 42 42 41 41 40 40 40 40 40 40 41 41 41 42 42 41 41 41 41 40 40 40 40 40
35 36 36 37 37 38 39 40 40 41 42 43 44 45 46 47 48 50 51 52 53 54 55 56 57 58 58 59 59 59 59 59 60 60 60 60 59 59 59 59 58 57 57 56 56 55 53 52 52 51 50 49 48 47 46 45 45 44 43 43 42 42 41 40 40 40 39 39 39 39 39 40 40 40 40 41 40 40 40 40 39 39 39 39 39 39
37 38 38 39 40 40 41 42 42 43 44 45 46 47 48 49 50 51 53 54 55 56 57 58 58 59 59 60 60 61 61 60 60 61 61 60 59 59 59 58 57 56 55 54 54 53 52 51 50 49 48 47 46 46 45 44 44 43 42 42 41 41 40 40 39 39 39 39 38 38 39 39 39 40 40 40 40 39 39 39 38 38 38 37 37 37
39 40 40 41 41 42 43 43 44 45 45 46 47 49 50 51 52 53 54 56 56 57 58 59 60 60 61 61 62 62 62 62 61 61 60 59 58 58 58 57 56 55 53 52 51 51 50 50 48 47 46 46 45 44 44 43 43 42 41 41 41 40 40 39 39 39 38 38 38 38 38 39 39 39 39 39 39 39 38 38 37 37 37 36 36 36
40 41 42 42 43 44 44 45 45 46 47 48 49 50 51 53 54 55 56 57 58 59 60 60 61 62 62 62 63 63 63 62 62 61 60 58 57 57 56 55 54 53 52 50 48 48 49 48 47 46 45 45 44 44 43 42 42 41 41 41 40 40 40 39 39 39 38 38 38 38 38 38 39 39 39 39 39 39 38 38 37 37 36 35 35 35
42 42 43 44 44 45 46 46 47 47 48 49 50 52 53 54 56 57 58 59 60 60 61 62 62 63 63 63 63 63 63 63 62 61 59 57 56 56 55 53 52 51 50 49 47 46 46 46 46 45 44 43 43 43 42 42 41 41 41 40 40 40 40 39 39 38 38 38 38 38 38 38 39 39 39 39 39 39 38 38 37 36 36 35 34 34
43 43 44 45 45 46 46 47 48 49 50 51 52 53 54 56 57 58 59 60 61 62 62 63 63 63 64 64 63 63 63 62 61 60 58 56 54 54 53 51 50 49 49 47 46 45 44 44 45 44 44 43 42 42 42 42 41 41 40 40 40 40 40 39 39 39 38 38 38 38 38 38 39 39 39 39 39 39 38 38 37 37 36 35 34 33
43 44 45 45 46 47 47 48 49 50 51 52 53 54 56 57 58 60 61 61 62 63 63 63 63 63 63 63 63 62 62 61 60 59 56 54 53 52 51 50 49 48 47 46 45 44 43 43 43 43 43 42 42 42 41 41 41 40 40 40 40 40 40 40 39 39 39 39 38 39 39 39 39 39 39 39 39 39 39 38 38 37 36 35 34 33
44 45 45 46 46 47 48 49 50 51 52 53 55 56 57 59 60 61 62 62 63 63 63 63 63 63 62 62 61 61 60 60 58 57 55 53 51 50 49 48 47 46 45 45 44 43 42 42 41 41 41 41 41 41 41 41 40 40 40 40 40 41 41 40 40 39 39 39 39 39 39 39 39 39 39 39 39 39 39 39 38 37 36 35 34 33
45 45 46 47 47 48 49 50 51 52 53 55 56 57 59 60 61 62 63 63 63 63 63 63 62 62 61 60 60 59 58 58 57 55 53 51 49 48 47 47 46 45 44 44 43 42 41 41 40 40 40 39 40 40 40 40 40 40 41 41 41 41 41 41 40 40 40 39 39 39 39 39 39 39 39 39 39 39 39 39 38 38 37 36 35 34
46 46 47 47 48 49 50 51 52 53 55 56 57 59 60 61 62 63 63 63 63 62 62 61 61 60 60 59 59 58 57 56 55 53 51 49 48 46 46 45 45 44 43 43 42 42 41 40 40 40 39 39 39 39 40 40 40 40 41 41 41 41 41 41 41 40 40 40 40 40 40 40 40 40 40 40 40 39 39 39 38 38 37 36 35 34
46 47 48 48 49 50 51 52 53 55 56 57 59 60 61 62 63 63 63 62 62 61 60 60 59 59 58 58 57 56 56 55 53 52 50 48 46 45 45 44 44 44 43 42 42 41 41 40 40 39 39 39 39 39 39 40 40 40 41 41 42 42 42 42 41 41 41 40 40 40 40 40 40 40 40 40 40 39 39 39 38 38 37 36 35 34
47 48 48 49 50 51 52 53 55 56 57 59 60 61 62 63 63 62 62 61 60 59 58 58 57 57 57 56 56 55 54 53 52 50 48 47 45 44 44 43 43 43 43 42 41 41 40 40 40 40 39 39 39 39 39 40 40 40 41 41 42 42 42 42 42 41 41 41 40 40 40 40 40 40 40 40 40 39 39 39 39 38 37 36 35 34
48 48 49 49 50 51 53 54 56 57 59 60 61 62 63 62 62 61 60 59 58 57 57 56 56 56 55 55 54 53 53 51 50 49 47 46 45 44 43 43 43 43 42 42 41 41 41 40 40 40 40 39 39 39 39 40 40 41 41 41 41 42 42 42 42 42 42 41 41 41 40 40 40 40 40 40 40 40 39 39 38 38 37 36 35 34
48 49 49 50 51 52 54 55 57 59 60 61 62 62 62 62 61 60 59 58 57 56 56 55 55 55 54 54 53 52 51 50 49 47 46 45 44 43 43 42 42 42 42 42 42 41 41 41 41 40 40 40 40 40 40 40 41 42 42 42 42 42 42 42 42 42 42 42 41 41 41 40 40 40 40 40 40 40 39 39 38 38 37 36 36 35
49 50 50 51 52 53 55 57 58 60 61 62 62 62 62 61 60 58 57 56 56 55 55 54 54 53 53 53 52 51 50 49 47 46 45 44 43 43 42 42 42 42 42 42 42 41 41 41 41 41 40 40 40 40 40 41 42 42 43 43 42 42 42 43 43 43 43 42 42 42 41 41 40 40 40 40 40 40 39 39 39 38 37 37 36 35
50 50 51 52 53 54 56 58 59 61 62 62 62 62 61 59 58 57 56 55 55 54 54 53 52 52 51 51 50 50 49 48 46 45 44 44 43 43 42 42 42 42 42 42 42 42 41 41 41 41 41 41 41 41 41 41 42 43 43 43 43 43 42 43 43 43 43 43 42 42 42 41 41 40 40 40 40 40 40 39 39 38 38 37 36 35
50 51 52 53 54 55 57 59 60 61 62 62 61 61 59 58 57 56 55 55 54 54 53 52 52 51 50 49 49 48 47 46 46 45 44 43 43 42 42 42 42 42 42 42 42 42 42 41 41 41 41 41 41 41 42 42 42 43 43 43 43 43 43 43 43 43 43 43 43 42 42 41 41 40 40 40 40 40 40 39 39 38 38 37 37 36
51 52 52 54 55 56 58 59 61 61 62 61 61 60 58 57 56 55 54 54 54 53 53 52 51 50 48 48 47 46 46 45 45 44 43 43 43 42 42 42 42 42 42 42 42 42 42 42 42 42 42 42 42 42 42 42 43 43 43 43 43 43 43 43 43 43 43 43 43 43 42 42 41 41 40 40 40 40 39 39 39 38 38 38 37 36
51 52 53 54 56 57 59 60 61 62 61 61 60 58 57 56 55 54 54 54 53 53 52 51 50 48 47 46 45 45 44 44 44 44 43 43 42 42 42 42 42 42 42 42 42 42 42 42 42 42 42 42 42 42 42 43 43 43 43 43 43 43 43 43 43 43 43 43 43 43 43 42 42 41 40 40 40 39 39 39 39 38 38 38 37 37
52 53 54 55 57 58 59 61 61 61 61 60 59 57 56 55 54 54 54 53 53 52 51 50 49 47 46 45 44 43 43 43 43 43 43 43 42 42 42 42 42 42 42 42 42 42 42 42 42 42 42 42 42 42 42 42 42 42 42 43 43 43 43 43 44 44 44 43 43 43 43 42 42 41 41 40 39 39 39 39 39 38 38 38 37 37
52 53 55 56 57 59 60 61 61 61 60 59 58 56 55 54 53 53 53 53 52 52 51 49 48 46 45 44 43 42 42 42 42 42 43 43 42 42 42 42 42 42 42 42 42 42 42 42 42 42 42 42 42 42 42 42 42 42 42 42 43 43 43 43 44 44 44 44 44 43 43 43 42 42 41 40 40 39 39 39 39 38 38 38 38 37
53 54 55 57 58 59 60 61 61 60 59 58 57 55 54 53 53 53 52 52 52 51 50 48 47 45 44 43 42 41 41 41 41 42 42 42 42 43 43 42 42 42 42 42 42 42 41 41 41 42 42 42 42 42 42 42 42 42 42 43 43 43 43 44 44 44 44 44 44 44 43 43 43 42 41 41 40 39 39 39 39 39 38 38 38 37
53 54 56 57 58 60 60 61 60 59 58 57 56 54 54 53 52 52 52 52 51 50 49 47 46 44 43 42 41 41 40 41 41 41 42 42 42 43 43 43 42 42 42 42 42 41 41 41 41 41 42 42 42 42 42 42 42 42 43 43 43 44 44 44 44 44 44 44 44 44 43 43 43 42 42 41 40 40 39 39 38 38 39 38 38 37
54 55 56 58 59 60 60 60 60 59 57 56 55 54 53 52 52 52 52 51 50 49 48 47 45 44 43 42 41 40 40 40 40 41 42 42 42 43 43 43 42 42 42 42 42 41 41 41 41 41 41 42 42 42 42 42 42 42 43 43 44 44 44 44 44 44 44 44 44 44 43 43 43 42 42 42 41 40 40 39 38 38 38 38 38 37
Wind_Direction
275 269 262 256 253 252 254 259 269 279 281 268 255 248 246 246 247 248 250 252 256 261 265 268 270 270 269 269 269 271 273 275 278 279 280 281 282 282 283 283 283 282 281 280 280 279 279 279 278 278 278 278 277 276 275 275 274 275 275 275 275 276 276 276 277 277 278 278 278 278 277 277 276 276 276 275 275 274 274 273 273 272 272 271 270 270
278 274 268 263 260 258 256 257 262 272 283 285 277 265 256 252 252 254 256 259 263 267 271 272 273 273 272 272 273 274 276 277 279 280 280 280 281 282 282 282 282 281 280 279 279 279 279 279 279 280 280 280 279 278 277 276 275 275 275 275 275 275 275 276 276 276 277 277 277 277 276 276 276 275 275 274 274 273 273 273 272 272 271 271 270 270
279 276 273 270 267 264 262 259 261 267 276 285 287 282 273 268 268 269 270 272 274 275 275 276 276 276 276 276 277 278 278 279 279 279 279 280 280 281 282 282 281 280 279 280 280 280 280 280 281 281 281 280 279 278 276 275 275 275 275 275 275 275 276 276 276 276 277 277 276 276 276 276 275 275 274 274 274 273 273 273 272 272 271 271 271 270
279 277 275 274 272 270 267 265 264 266 272 279 285 286 283 281 279 279 279 279 279 279 279 278 278 279 279 279 280 280 279 279 278 278 279 280 281 282 283 282 280 279 279 280 281 281 281 281 280 280 279 278 277 277 276 276 276 276 276 277 277 277 277 277 277 277 277 277 277 276 276 276 275 275 275 274 274 274 274 273 273 273 272 272 271 271
278 277 276 276 275 274 272 270 268 268 271 276 281 284 285 283 282 281 280 280 280 280 279 279 280 280 281 281 281 281 279 278 278 278 280 281 283 284 284 283 281 279 278 278 279 279 279 278 278 278 278 277 277 277 278 278 278 278 278 279 279 279 279 278 278 278 278 278 277 277 277 276 276 276 276 275 275 275 275 274 274 273 273 272 272 271
278 277 277 277 277 277 276 274 272 271 272 275 278 281 282 281 281 280 280 279 278 278 278 279 279 280 281 281 280 279 278 277 277 279 281 283 284 285 285 284 281 279 277 276 276 276 276 277 277 277 278 278 278 279 279 279 279 279 280 280 279 279 279 279 279 279 278 278 278 278 278 277 277 277 277 276 276 276 275 275 275 274 273 273 272 272
278 277 277 278 278 278 278 276 274 273 273 274 276 277 278 279 279 279 278 277 277 276 277 277 278 279 279 279 277 276 275 276 278 280 282 284 285 285 285 284 282 280 278 277 277 277 277 277 278 278 278 279 279 279 279 280 280 280 280 280 280 280 280 279 279 279 279 279 279 279 278 278 278 278 278 277 277 276 276 276 275 275 274 273 273 272
278 277 278 280 280 279 278 276 273 272 271 272 273 275 276 277 277 277 277 276 276 276 277 278 278 278 277 275 274 275 276 278 280 283 284 285 285 285 284 284 283 282 280 279 279 278 278 279 279 279 279 280 280 280 280 281 281 281 281 281 281 281 280 280 280 280 280 280 280 280 279 279 279 279 278 278 278 277 277 276 276 275 275 274 273 273
279 279 281 283 284 283 280 277 273 271 270 271 273 275 277 278 279 279 278 278 278 278 278 278 278 277 275 275 276 278 280 282 284 285 286 286 285 285 284 284 283 282 282 281 281 280 280 280 280 281 281 281 281 281 282 282 282 282 282 282 282 281 281 281 281 281 281 281 281 281 281 280 280 280 279 279 278 278 277 277 276 276 275 275 274 273
280 281 284 287 288 287 286 283 279 277 276 276 278 279 281 282 282 282 282 281 281 281 280 280 279 278 278 279 280 282 284 285 286 286 286 285 285 284 284 284 283 283 283 282 282 282 282 282 282 282 282 282 282 282 283 283 283 283 283 283 283 282 282 282 282 282 282 282 282 282 281 281 281 280 280 280 279 279 278 278 277 276 276 275 275 274
282 283 285 287 289 289 289 288 287 285 284 284 284 284 284 285 284 284 284 283 283 283 282 282 281 282 282 283 284 284 285 285 285 285 285 285 285 284 284 284 284 284 284 284 284 284 284 284 283 283 283 283 283 283 284 284 284 284 284 284 283 283 283 283 283 283 283 283 283 282 282 282 281 281 281 280 280 279 279 278 278 277 277 276 275 275
283 284 285 287 288 289 290 290 290 289 288 287 286 286 286 286 286 285 285 285 284 284 284 284 284 284 284 285 285 285 285 285 285 285 285 285 285 286 286 286 286 286 285 285 285 285 285 284 284 284 284 284 284 284 284 284 284 284 284 284 284 284 284 284 283 283 283 283 283 283 282 282 282 282 281 281 280 280 280 279 278 278 277 277 276 275
289 287 287 288 288 289 290 290 290 290 289 289 288 287 287 287 287 287 287 287 286 286 285 285 285 285 285 285 285 286 286 286 286 287 287 287 287 287 287 287 286 286 286 286 285 285 285 285 285 285 285 285 285 285 285 285 285 284 284 284 284 284 284 284 284 284 284 284 284 283 283 283 283 282 282 282 282 281 281 280 279 279 278 277 277 276
302 298 296 294 294 293 293 293 293 292 292 291 291 291 290 290 289 289 288 287 287 286 286 286 286 286 286 286 287 287 287 288 288 288 287 287 287 287 287 287 287 286 286 286 286 286 286 286 285 285 285 285 285 285 285 285 284 284 284 284 284 284 284 284 284 284 285 284 284 284 284 284 284 284 284 283 283 282 282 281 280 280 279 278 277 276
321 315 311 307 305 302 300 299 298 297 296 295 294 293 292 291 290 289 288 288 288 287 287 287 287 288 288 288 288 288 289 289 289 288 288 288 288 288 288 287 287 287 287 286 286 286 286 286 286 285 285 285 285 285 285 285 284 284 285 285 285 285 285 285 285 285 285 286 286 286 285 285 285 285 284 284 283 283 282 281 280 280 279 278 277 277
330 326 322 318 314 310 307 304 301 299 297 295 294 292 292 291 290 290 289 289 289 289 289 289 289 289 289 289 289 289 289 289 289 288 288 288 288 288 288 288 287 287 287 287 287 287 286 286 286 286 286 285 285 285 285 285 285 285 285 285 285 286 286 286 286 286 286 286 286 286 286 286 285 285 284 284 283 282 281 280 279 279 278 277 277 276
327 324 321 317 313 309 306 302 300 297 295 294 293 292 291 291 291 291 290 290 290 290 290 290 290 290 290 290 290 290 290 290 289 289 289 289 289 289 289 289 288 288 288 288 287 287 287 287 287 286 286 286 286 286 286 286 286 286 286 286 286 286 286 286 286 286 286 286 286 286 286 285 285 284 283 282 282 281 280 279 278 278 277 276 276 275
320 317 314 311 308 306 303 301 299 297 295 294 294 293 293 292 292 292 291 291 291 291 291 291 291 291 291 291 291 291 291 291 291 290 291 291 291 291 290 290 289 289 289 289 288 288 288 287 287 287 287 287 287 286 286 286 286 286 286 286 286 286 286 286 286 286 286 286 286 285 285 285 284 283 282 281 281 280 279 278 277 277 276 275 275 274
316 313 311 309 306 304 303 301 300 298 297 296 295 295 294 294 293 293 293 293 292 292 292 292 292 293 293 293 293 293 293 293 292 292 292 292 292 292 291 291 290 290 290 289 289 288 288 288 288 287 287 287 287 287 287 286 286 286 286 286 286 286 286 286 286 286 286 286 286 285 285 284 284 283 282 281 280 279 278 277 277 276 275 275 274 274
313 311 310 308 306 305 303 302 301 300 299 298 297 297 296 295 295 295 294 294 294 294 295 295 295 295 295 295 295 295 295 295 294 294 294 293 293 292 292 291 291 290 290 290 289 289 289 288 288 288 288 288 288 287 287 287 286 286 286 286 287 287 287 287 287 287 287 286 286 286 285 285 284 283 282 281 280 279 278 277 276 276 275 274 274 273
312 311 309 308 307 306 305 304 303 302 301 300 299 299 298 297 297 297 297 297 297 297 297 297 297 297 297 297 297 297 297 296 295 295 294 294 293 293 293 292 291 291 290 290 290 290 289 289 289 289 289 288 288 287 287 287 287 287 287 287 287 287 287 287 287 287 287 287 287 286 286 285 284 284 282 281 280 279 278 277 276 276 275 274 274 273
312 311 310 309 308 307 306 305 304 304 303 302 301 301 300 300 299 299 299 299 299 299 299 299 299 298 298 298 298 298 298 297 296 296 295 295 294 294 293 293 292 292 291 291 291 291 291 290 290 289 289 289 288 288 287 287 287 287 287 288 288 288 288 288 288 288 287 287 287 287 286 286 285 284 283 282 281 280 279 278 277 277 276 275 274 273
311 311 310 309 308 307 307 306 305 305 304 303 303 302 302 301 301 301 301 301 301 301 300 300 300 300 300 300 300 300 299 298 298 297 296 295 295 294 294 294 293 293 292 292 292 292 291 291 290 290 289 289 288 288 287 287 287 288 288 288 288 288 288 288 287 288 288 287 287 287 287 286 285 285 284 283 282 282 281 280 279 278 277 276 275 274
311 311 310 309 309 308 307 307 306 306 305 305 304 304 303 303 303 303 303 303 303 302 302 302 302 302 302 301 301 301 300 299 299 298 297 296 296 296 295 295 294 293 293 293 292 292 291 291 290 289 289 289 288 288 288 287 287 287 287 287 287 287 287 287 287 288 288 288 288 288 287 287 286 286 285 284 284 283 282 282 280 279 278 277 275 274
312 311 311 310 309 309 308 308 307 307 306 306 306 305 305 305 305 305 305 305 305 304 304 304 303 303 303 302 302 301 301 300 300 299 298 298 297 296 296 295 295 294 293 293 293 292 291 290 290 289 289 288 288 287 287 287 287 287 286 286 286 286 287 287 287 288 288 288 288 288 288 288 287 287 286 286 286 285 284 283 282 280 279 277 276 274
312 311 311 311 310 310 309 309 308 308 308 308 307 307 307 307 306 306 306 306 306 306 305 305 304 304 303 303 302 302 301 301 300 300 299 298 297 297 296 296 295 294 293 293 292 291 291 290 289 289 288 288 287 287 286 286 286 285 285 285 286 286 287 287 288 288 289 289 289 289 289 289 288 288 288 288 287 287 286 285 283 281 280 278 276 274
312 312 311 311 310 310 310 309 309 309 309 309 308 308 308 308 308 308 307 307 307 307 306 306 305 305 304 303 302 302 301 301 300 300 299 298 297 296 296 295 295 294 293 292 291 291 290 289 289 288 287 287 286 286 285 285 284 284 285 285 286 286 287 287 288 289 289 290 290 290 290 290 290 290 290 290 289 289 287 286 284 283 281 279 277 275
312 311 311 311 311 310 310 310 310 310 310 309 309 309 309 309 309 308 308 308 307 307 306 306 305 305 304 303 302 301 301 300 300 299 299 298 297 296 295 295 294 293 292 291 291 290 289 288 287 287 286 285 285 284 284 284 284 284 284 285 286 287 287 288 289 289 290 290 291 291 291 292 292 292 292 291 291 290 289 288 286 284 281 279 277 275
312 311 311 311 311 311 310 310 310 310 310 310 310 310 309 309 309 309 309 308 308 307 307 306 305 305 304 303 302 301 300 300 299 299 298 297 296 295 294 294 293 292 291 290 289 289 287 286 286 285 285 284 283 283 283 283 283 284 284 285 286 287 288 289 290 290 291 292 292 293 293 293 294 294 294 294 293 292 291 289 287 285 282 280 278 276
312 311 311 311 311 311 311 311 311 311 311 310 310 310 310 310 310 309 309 308 308 307 307 306 305 304 304 303 302 301 300 300 299 298 297 296 295 294 293 292 291 290 289 288 288 287 286 285 285 284 283 283 283 282 282 282 283 284 285 286 287 288 289 290 291 291 292 293 294 294 295 295 295 296 296 296 295 294 293 291 289 286 283 281 278 276
312 312 311 311 311 311 311 311 311 311 311 311 311 311 310 310 310 309 309 309 308 307 307 306 305 304 303 302 301 300 299 299 298 297 296 295 293 292 292 291 290 289 288 287 285 285 284 284 284 283 282 282 282 282 282 282 283 284 285 286 288 289 290 291 292 293 294 295 295 296 296 297 297 297 297 297 297 296 295 293 291 288 285 282 279 277
312 312 312 312 311 311 311 311 311 311 311 311 311 311 310 310 310 309 309 309 308 307 306 306 305 304 303 302 300 299 299 298 298 297 296 294 293 292 291 289 289 288 287 286 284 283 283 283 283 283 282 281 281 281 282 283 284 285 286 287 289 290 291 292 293 294 295 296 297 297 298 298 299 299 299 299 299 298 297 295 292 290 287 284 281 278
312 312 312 312 311 311 311 311 311 311 311 311 311 311 311 310 310 310 309 309 308 307 306 305 304 303 302 301 300 299 298 298 297 297 295 294 292 291 290 289 287 287 286 285 283 282 281 281 282 282 282 281 281 282 282 283 284 286 287 288 289 291 292 293 294 295 296 297 298 298 299 299 300 300 300 300 300 299 298 296 294 291 288 285 282 279
312 312 312 312 312 311 311 311 311 311 311 311 311 311 311 311 310 310 309 309 308 307 306 305 304 303 302 301 300 299 298 297 297 296 295 293 292 290 289 287 286 285 284 283 282 281 281 280 280 281 282 282 282 283 283 284 285 287 288 289 290 291 292 293 294 295 296 297 298 299 299 300 301 301 301 301 301 300 299 297 295 292 290 287 284 281
312 312 312 312 312 311 311 311 311 312 312 312 312 312 312 311 311 310 309 309 308 307 306 305 303 302 301 300 299 298 298 297 297 296 294 293 291 289 288 286 285 284 283 282 281 280 279 279 279 279 280 282 283 283 284 285 286 287 288 289 290 291 292 293 294 296 297 298 298 299 300 300 301 302 302 302 302 301 299 297 295 293 290 288 284 282
313 312 312 312 312 312 312 312 312 312 312 313 313 312 312 312 311 310 310 309 308 307 306 304 303 302 301 300 299 298 297 297 296 295 294 292 290 288 287 285 284 283 282 281 280 279 278 278 278 278 278 279 281 283 284 285 286 287 288 289 290 291 292 293 294 295 296 297 298 299 299 300 301 302 302 302 301 300 299 297 295 293 291 288 285 282
313 313 313 312 312 312 312 313 313 313 313 313 313 313 313 312 312 311 310 309 308 307 306 305 304 302 301 300 299 298 297 297 296 295 293 292 290 287 285 284 283 281 280 279 279 278 278 277 277 277 277 277 279 281 283 284 286 286 287 288 289 290 291 292 293 295 296 296 297 298 299 300 300 301 301 301 301 300 299 297 295 293 291 288 285 283
313 313 313 313 313 313 313 313 314 314 314 314 314 314 313 313 312 311 310 309 308 307 306 305 304 303 302 301 300 298 297 296 295 294 292 291 289 286 284 283 282 280 279 279 278 278 277 276 276 276 276 276 277 278 280 282 284 285 286 287 288 289 291 292 293 294 294 295 296 297 298 299 299 300 300 300 300 299 298 297 295 293 291 288 285 283
314 313 313 313 314 314 314 314 315 315 315 315 315 314 314 313 312 312 311 310 309 308 307 305 304 303 302 301 300 298 297 296 294 293 292 290 287 285 283 282 281 280 279 278 277 277 277 276 276 275 275 276 276 277 279 280 281 283 284 286 287 288 290 291 292 293 293 294 295 296 297 297 298 299 299 299 299 299 297 296 295 293 291 288 285 282
314 314 314 314 314 315 315 315 316 316 316 316 316 315 315 314 313 312 311 310 309 308 308 306 305 304 302 301 300 298 297 295 294 292 290 288 286 284 283 281 280 279 279 278 277 277 277 276 276 276 275 276 276 277 278 279 280 281 282 284 285 287 288 289 290 291 292 293 294 294 295 296 297 298 298 298 298 298 297 296 294 292 290 288 285 282
314 314 314 315 315 315 316 316 317 317 317 317 316 316 315 315 314 313 312 311 310 310 309 307 306 305 303 301 300 298 297 295 293 291 289 287 285 283 282 280 279 279 278 278 278 277 277 277 277 277 276 276 277 277 278 279 279 280 281 282 283 285 286 287 288 289 290 291 292 293 294 295 296 296 297 297 297 297 296 295 294 292 290 287 285 282
315 315 315 315 316 317 317 317 318 318 318 318 317 317 316 315 314 314 313 312 311 311 310 309 307 305 303 302 300 298 296 294 293 291 288 286 285 283 281 280 279 279 278 278 278 278 278 278 278 278 278 278 278 278 278 278 279 280 280 281 282 283 284 286 287 288 289 290 291 292 293 294 295 295 296 296 296 296 296 295 293 291 289 287 284 282
315 315 316 316 317 318 318 318 319 319 319 318 318 318 317 316 315 314 314 313 312 312 311 310 308 306 304 302 300 298 296 294 292 290 288 286 284 282 281 280 279 279 279 278 278 278 278 278 279 279 279 279 279 279 279 279 279 279 280 281 281 282 283 284 285 286 288 289 290 291 292 293 294 294 295 295 296 295 295 294 292 291 288 286 284 281
316 316 316 317 318 319 319 319 320 320 319 319 319 318 317 317 316 315 315 314 314 313 313 311 310 307 305 303 300 298 296 294 292 290 288 286 284 282 281 280 279 279 279 279 279 279 279 279 279 280 280 280 280 280 279 279 279 279 280 281 281 282 283 284 284 286 287 288 289 290 291 292 293 293 294 294 294 294 294 293 292 290 287 285 283 280
316 317 317 318 319 320 320 320 320 320 320 320 319 319 318 317 316 316 316 315 315 315 314 313 311 308 305 303 301 298 296 294 291 289 287 286 284 282 281 280 280 279 279 279 279 279 280 280 280 280 281 281 281 280 280 280 279 280 280 281 281 282 282 283 284 285 286 287 288 289 290 291 292 292 292 293 293 293 293 292 291 289 286 284 282 280
317 317 318 319 320 320 321 321 321 321 321 320 320 319 318 318 317 317 317 317 316 316 315 314 312 309 306 304 301 298 296 293 291 289 287 286 284 283 282 281 280 280 280 280 280 280 280 280 281 281 281 281 281 281 280 280 280 280 280 281 281 282 282 283 284 284 285 286 287 288 289 290 290 291 291 291 292 292 292 291 290 288 285 283 281 278
317 318 319 320 321 321 321 322 322 322 321 321 320 319 319 318 318 318 318 318 318 317 316 315 313 310 307 304 301 298 295 293 291 289 287 286 285 284 283 282 281 281 281 281 281 281 281 281 281 281 281 281 281 281 280 280 280 280 280 281 281 282 282 283 283 284 285 285 286 287 288 289 289 290 290 290 291 291 291 290 289 286 284 282 279 277
318 319 320 321 321 322 322 322 322 322 322 321 320 320 319 318 318 318 319 319 319 318 317 316 314 311 308 305 302 298 295 292 290 289 288 286 285 284 283 283 282 282 282 282 282 282 282 282 282 282 282 281 281 281 280 280 281 281 281 281 281 282 282 283 283 284 284 285 286 287 287 288 289 289 289 289 290 290 290 289 288 286 283 281 278 276
319 320 321 321 322 322 323 323 323 323 322 321 320 320 319 319 319 319 320 320 320 319 318 317 315 312 309 305 302 299 295 292 290 289 288 287 286 285 284 284 283 283 283 283 283 283 282 282 282 282 282 282 282 281 281 281 282 282 282 282 282 282 282 283 283 284 284 285 286 286 287 288 288 288 289 289 289 290 289 288 287 285 282 280 277 275
320 320 321 322 322 323 323 323 323 323 322 321 320 320 319 319 320 320 321 321 321 320 319 318 316 313 310 306 303 299 296 293 290 289 288 287 286 285 285 285 284 284 284 284 284 283 283 283 283 283 283 283 283 283 283 283 283 283 283 283 283 283 283 283 283 284 284 285 286 286 287 288 288 288 288 288 289 289 289 288 286 283 281 278 276 274
320 321 322 322 323 323 323 323 323 323 322 321 320 320 320 320 320 321 321 322 322 321 320 319 317 314 311 307 303 300 296 293 291 289 288 287 286 286 285 285 285 285 285 284 284 284 284 284 284 284 284 284 283 284 284 284 284 284 284 284 284 284 284 284 284 284 284 285 286 286 287 287 287 287 287 288 288 288 288 286 284 282 279 277 275 273
Height
5624 5625 5626 5627 5628 5629 5631 5633 5634 5635 5636 5637 5638 5639 5639 5640 5640 5641 5642 5643 5643 5643 5644 5644 5644 5644 5644 5644 5645 5645 5645 5645 5645 5645 5645 5645 5644 5644 5644 5643 5643 5643 5642 5642 5641 5641 5641 5640 5640 5640 5639 5639 5639 5639 5638 5638 5637 5637 5637 5636 5636 5635 5634 5634 5633 5633 5632 5632 5632 5631 5631 5630 5630 5630 5629 5629 5629 5629 5629 5628 5628 5629 5629 5629 5629 5629
5622 5622 5623 5624 5625 5626 5628 5629 5631 5632 5633 5634 5634 5634 5635 5636 5637 5638 5639 5639 5640 5640 5640 5641 5641 5641 5641 5641 5642 5642 5642 5642 5642 5641 5641 5641 5641 5640 5640 5639 5639 5639 5638 5638 5637 5637 5637 5636 5636 5636 5635 5635 5634 5634 5634 5633 5633 5632 5632 5631 5631 5630 5629 5629 5628 5628 5627 5627 5626 5626 5625 5625 5624 5624 5624 5624 5623 5623 5623 5623 5623 5623 5623 5623 5623 5623
5619 5620 5620 5621 5622 5623 5625 5627 5628 5629 5630 5631 5632 5632 5632 5633 5634 5635 5636 5637 5637 5638 5638 5638 5638 5638 5638 5638 5639 5639 5639 5638 5638 5638 5637 5637 5637 5636 5636 5635 5635 5634 5634 5634 5633 5633 5633 5632 5632 5631 5631 5630 5630 5629 5629 5629 5628 5628 5627 5626 5626 5625 5624 5624 5623 5623 5622 5622 5621 5621 5620 5620 5619 5619 5618 5618 5618 5617 5617 5617 5617 5617 5617 5617 5617 5617
5617 5618 5618 5619 5620 5621 5622 5624 5626 5627 5628 5629 5629 5630 5630 5631 5632 5633 5634 5634 5635 5635 5635 5635 5635 5635 5635 5635 5635 5635 5634 5634 5634 5634 5634 5633 5633 5632 5632 5631 5631 5630 5630 5629 5629 5628 5628 5628 5627 5627 5626 5626 5625 5625 5624 5624 5623 5623 5622 5621 5620 5620 5619 5619 5618 5618 5617 5616 5616 5615 5614 5614 5614 5613 5613 5612 5612 5612 5611 5611 5611 5611 5611 5611 5610 5610
5614 5615 5616 5617 5618 5619 5620 5622 5624 5625 5626 5627 5628 5628 5629 5629 5630 5631 5631 5632 5632 5632 5632 5632 5632 5631 5631 5631 5631 5631 5630 5630 5630 5629 5629 5629 5629 5628 5627 5627 5626 5626 5625 5625 5624 5624 5624 5623 5623 5622 5622 5621 5621 5620 5619 5619 5618 5618 5617 5616 5615 5615 5614 5613 5613 5612 5611 5611 5610 5609 5609 5608 5608 5607 5607 5606 5606 5605 5605 5605 5604 5604 5604 5604 5604 5604
5612 5614 5614 5615 5616 5618 5619 5620 5622 5624 5624 5625 5625 5626 5627 5627 5628 5628 5628 5629 5629 5629 5628 5629 5628 5628 5628 5628 5627 5627 5627 5626 5626 5626 5625 5625 5624 5624 5623 5622 5622 5621 5621 5620 5620 5619 5619 5619 5618 5618 5617 5616 5616 5615 5614 5614 5613 5612 5612 5611 5610 5609 5609 5608 5607 5606 5606 5605 5604 5604 5603 5602 5602 5601 5600 5600 5599 5599 5599 5598 5598 5598 5598 5597 5597 5597
5611 5612 5613 5614 5615 5616 5617 5619 5620 5622 5623 5623 5623 5624 5624 5624 5624 5625 5625 5625 5625 5625 5625 5625 5625 5625 5624 5624 5624 5624 5623 5623 5622 5622 5622 5621 5620 5619 5619 5618 5617 5617 5616 5616 5615 5615 5614 5614 5613 5613 5612 5612 5611 5610 5609 5609 5608 5607 5606 5606 5605 5604 5603 5602 5602 5601 5600 5599 5598 5598 5597 5596 5595 5595 5594 5594 5593 5593 5592 5592 5591 5591 5591 5590 5590 5590
5609 5610 5612 5613 5614 5614 5615 5616 5618 5619 5620 5620 5621 5621 5621 5621 5621 5621 5622 5622 5622 5622 5622 5622 5622 5622 5621 5621 5620 5620 5619 5619 5619 5618 5618 5617 5616 5615 5614 5614 5613 5612 5612 5611 5611 5610 5610 5609 5609 5608 5608 5607 5606 5605 5604 5604 5603 5602 5601 5600 5599 5599 5598 5597 5596 5595 5594 5593 5592 5592 5591 5590 5589 5589 5588 5587 5586 5586 5585 5585 5584 5584 5584 5583 5583 5583
5609 5609 5610 5611 5612 5613 5614 5615 5616 5617 5617 5618 5618 5618 5618 5619 5619 5619 5619 5619 5619 5619 5619 5619 5619 5618 5618 5618 5617 5616 5615 5615 5614 5614 5613 5612 5612 5611 5610 5609 5609 5608 5608 5607 5606 5606 5605 5605 5604 5603 5603 5602 5601 5600 5599 5599 5598 5597 5596 5595 5594 5593 5592 5591 5590 5589 5588 5587 5586 5585 5584 5584 5583 5582 5581 5580 5580 5579 5579 5578 5578 5577 5576 5576 5575 5575
5609 5609 5609 5610 5611 5611 5612 5613 5614 5614 5615 5615 5615 5615 5615 5616 5616 5616 5616 5616 5616 5616 5616 5615 5615 5615 5614 5614 5613 5612 5612 5611 5610 5610 5609 5608 5608 5607 5606 5605 5604 5604 5604 5603 5602 5602 5601 5600 5599 5599 5598 5597 5596 5595 5594 5594 5592 5591 5590 5589 5588 5587 5586 5585 5584 5583 5582 5581 5580 5579 5578 5577 5576 5575 5575 5574 5573 5572 5572 5571 5570 5570 5569 5569 5568 5568
5610 5610 5609 5609 5609 5610 5611 5611 5612 5612 5613 5613 5613 5613 5613 5613 5613 5613 5613 5614 5614 5613 5613 5612 5612 5611 5610 5610 5609 5609 5608 5607 5606 5606 5605 5604 5604 5603 5602 5601 5600 5600 5599 5599 5598 5597 5596 5595 5594 5594 5593 5592 5591 5590 5589 5588 5587 5586 5585 5584 5583 5581 5580 5579 5578 5577 5576 5575 5574 5573 5572 5571 5570 5569 5568 5567 5566 5566 5565 5564 5563 5563 5562 5561 5560 5560
5609 5610 5610 5609 5609 5609 5610 5610 5610 5610 5610 5611 5611 5611 5611 5611 5611 5610 5610 5610 5611 5610 5610 5609 5608 5608 5607 5606 5606 5605 5604 5604 5603 5602 5602 5601 5600 5599 5598 5597 5596 5595 5595 5594 5593 5593 5592 5591 5590 5589 5588 5587 5586 5585 5584 5583 5581 5580 5579 5578 5577 5576 5574 5574 5572 5571 5570 5569 5568 5567 5566 5565 5564 5563 5562 5561 5560 5559 5558 5557 5556 5555 5554 5554 5553 5552
5609 5609 5609 5609 5609 5609 5609 5609 5609 5609 5609 5609 5609 5609 5609 5609 5608 5608 5608 5608 5608 5608 5607 5606 5605 5605 5604 5603 5602 5602 5601 5600 5599 5599 5598 5597 5596 5595 5594 5593 5592 5591 5590 5589 5589 5588 5587 5586 5584 5584 5583 5582 5580 5579 5579 5577 5576 5575 5574 5572 5571 5570 5569 5568 5567 5565 5564 5563 5562 5561 5560 5559 5558 5556 5555 5554 5553 5552 5551 5550 5549 5548 5547 5546 5545 5544
5608 5608 5608 5608 5608 5608 5608 5608 5608 5608 5607 5607 5607 5607 5607 5607 5606 5606 5606 5606 5605 5605 5604 5604 5603 5602 5601 5600 5599 5598 5598 5597 5596 5595 5594 5593 5592 5591 5590 5589 5588 5587 5586 5585 5584 5583 5582 5581 5579 5578 5578 5577 5575 5574 5573 5572 5571 5569 5568 5567 5566 5564 5563 5562 5561 5559 5558 5557 5556 5555 5554 5552 5551 5550 5549 5547 5546 5545 5544 5543 5542 5541 5539 5539 5538 5537
5608 5608 5607 5607 5607 5607 5607 5607 5606 5606 5606 5606 5606 5606 5605 5605 5605 5605 5604 5604 5603 5602 5602 5601 5600 5599 5598 5597 5596 5595 5594 5593 5592 5591 5590 5589 5588 5588 5586 5584 5583 5582 5581 5580 5579 5578 5577 5576 5574 5573 5572 5571 5570 5569 5568 5567 5565 5564 5563 5561 5560 5559 5558 5556 5555 5554 5553 5551 5550 5549 5547 5546 5545 5544 5542 5541 5540 5539 5537 5536 5535 5534 5533 5532 5531 5530
5608 5607 5607 5607 5607 5607 5606 5606 5606 5606 5606 5605 5605 5605 5604 5604 5604 5603 5602 5601 5600 5600 5599 5598 5597 5596 5595 5594 5593 5592 5591 5589 5588 5587 5586 5584 5584 5583 5582 5580 5578 5577 5577 5575 5574 5572 5571 5570 5569 5568 5567 5566 5565 5564 5562 5561 5560 5558 5557 5556 5554 5553 5552 5551 5549 5548 5547 5545 5544 5543 5542 5540 5539 5538 5537 5535 5534 5533 5531 5530 5529 5528 5527 5526 5525 5524
5608 5607 5607 5606 5606 5606 5606 5606 5605 5605 5605 5604 5604 5604 5603 5602 5602 5601 5600 5599 5598 5597 5596 5594 5593 5592 5591 5590 5589 5589 5587 5586 5584 5583 5582 5580 5579 5579 5577 5575 5573 5572 5571 5570 5569 5567 5566 5565 5564 5563 5562 5560 5559 5558 5557 5555 5554 5553 5551 5550 5549 5548 5547 5545 5544 5543 5542 5540 5539 5538 5537 5535 5534 5533 5531 5530 5529 5528 5526 5525 5524 5523 5522 5521 5520 5519
5607 5606 5606 5605 5605 5605 5605 5604 5604 5604 5603 5603 5602 5601 5600 5600 5599 5598 5597 5596 5595 5594 5592 5591 5590 5589 5588 5586 5585 5585 5584 5582 5580 5578 5578 5576 5575 5574 5572 5570 5569 5567 5566 5565 5564 5562 5561 5559 5558 5557 5556 5555 5554 5552 5551 5549 5548 5547 5546 5544 5544 5542 5541 5540 5539 5538 5536 5535 5534 5533 5531 5530 5529 5528 5526 5525 5524 5522 5521 5520 5519 5518 5517 5516 5515 5514
5606 5605 5605 5604 5604 5604 5603 5603 5602 5602 5601 5600 5599 5599 5598 5597 5596 5595 5594 5593 5592 5590 5589 5588 5587 5585 5584 5583 5581 5580 5579 5578 5575 5574 5573 5572 5570 5569 5567 5565 5564 5562 5561 5559 5558 5557 5555 5554 5553 5552 5551 5549 5548 5547 5545 5544 5543 5541 5540 5539 5538 5537 5536 5535 5534 5532 5531 5530 5529 5527 5526 5525 5524 5522 5521 5520 5519 5517 5516 5515 5514 5513 5512 5511 5510 5509
5604 5604 5603 5603 5602 5602 5601 5601 5600 5599 5598 5598 5597 5596 5595 5594 5593 5592 5591 5590 5588 5587 5586 5584 5583 5582 5580 5579 5577 5576 5575 5573 5571 5569 5568 5567 5565 5564 5562 5560 5559 5557 5555 5554 5553 5551 5550 5548 5547 5546 5545 5544 5542 5541 5539 5538 5537 5536 5534 5534 5533 5531 5530 5529 5528 5527 5525 5524 5523 5522 5521 5519 5519 5517 5516 5515 5514 5512 5511 5510 5509 5508 5507 5506 5505 5504
5603 5602 5602 5601 5600 5599 5599 5598 5597 5596 5595 5594 5594 5593 5592 5591 5590 5589 5588 5586 5585 5584 5582 5581 5579 5578 5577 5575 5573 5572 5570 5569 5567 5565 5563 5562 5560 5559 5557 5555 5554 5552 5550 5549 5547 5546 5544 5543 5541 5540 5539 5538 5536 5535 5534 5532 5531 5530 5529 5528 5527 5526 5525 5524 5522 5521 5520 5519 5518 5517 5516 5514 5513 5512 5511 5510 5509 5507 5506 5505 5504 5503 5502 5501 5500 5499
5602 5601 5600 5599 5598 5598 5597 5596 5595 5594 5593 5592 5591 5590 5589 5588 5587 5585 5584 5583 5581 5580 5579 5577 5575 5574 5572 5571 5569 5567 5566 5564 5562 5560 5559 5557 5555 5554 5552 5550 5548 5546 5544 5543 5541 5540 5538 5537 5535 5534 5533 5532 5531 5529 5528 5527 5525 5524 5524 5523 5521 5520 5519 5518 5517 5516 5515 5514 5513 5512 5511 5509 5508 5507 5506 5505 5504 5502 5501 5500 5499 5498 5497 5496 5495 5494
5600 5599 5598 5597 5596 5595 5594 5594 5592 5591 5590 5589 5588 5587 5586 5584 5583 5582 5581 5579 5578 5576 5575 5573 5571 5569 5568 5566 5564 5563 5561 5559 5557 5555 5554 5551 5549 5548 5547 5545 5543 5540 5539 5537 5536 5534 5532 5531 5530 5529 5528 5526 5525 5524 5522 5521 5520 5519 5518 5517 5516 5515 5514 5513 5512 5511 5510 5509 5508 5507 5506 5505 5504 5502 5501 5500 5499 5498 5496 5495 5494 5493 5492 5491 5491 5490
5598 5597 5596 5595 5594 5593 5592 5591 5590 5589 5588 5586 5585 5584 5582 5581 5579 5578 5577 5575 5574 5572 5570 5569 5567 5565 5564 5562 5560 5558 5556 5554 5552 5550 5548 5546 5544 5543 5541 5539 5537 5535 5533 5531 5530 5529 5527 5525 5524 5523 5522 5521 5519 5518 5517 5516 5514 5514 5513 5512 5511 5510 5509 5508 5508 5507 5506 5505 5504 5503 5501 5500 5499 5498 5496 5495 5494 5493 5492 5491 5489 5489 5488 5487 5486 5485
5596 5595 5594 5593 5592 5590 5589 5588 5587 5586 5584 5583 5582 5580 5579 5577 5576 5574 5573 5571 5569 5568 5566 5564 5563 5561 5559 5558 5556 5554 5551 5549 5547 5545 5543 5540 5538 5537 5535 5534 5532 5530 5527 5525 5524 5523 5522 5520 5518 5518 5517 5515 5514 5513 5511 5510 5509 5509 5508 5507 5506 5505 5505 5504 5503 5502 5501 5500 5499 5498 5497 5496 5494 5493 5492 5491 5489 5488 5487 5486 5485 5484 5483 5482 5481 5480
5593 5592 5591 5590 5589 5588 5587 5585 5584 5583 5581 5580 5578 5577 5575 5573 5572 5570 5569 5567 5565 5564 5562 5559 5558 5556 5554 5553 5551 5549 5547 5544 5542 5540 5538 5535 5532 5530 5529 5528 5527 5524 5522 5519 5518 5518 5516 5514 5513 5512 5511 5510 5509 5507 5506 5505 5504 5504 5503 5502 5502 5501 5500 5499 5499 5498 5497 5496 5495 5494 5493 5491 5490 5489 5488 5486 5485 5484 5483 5482 5480 5479 5479 5478 5477 5476
5591 5589 5589 5587 5586 5585 5584 5582 5581 5579 5578 5576 5575 5573 5571 5569 5568 5566 5565 5563 5561 5559 5557 5555 5553 5551 5549 5548 5546 5544 5542 5540 5537 5534 5532 5530 5527 5524 5523 5522 5521 5519 5516 5514 5512 5512 5511 5509 5507 5506 5506 5504 5504 5503 5502 5501 5500 5499 5499 5498 5497 5497 5496 5495 5494 5494 5493 5492 5491 5490 5489 5487 5486 5485 5484 5482 5481 5479 5479 5477 5476 5475 5474 5474 5473 5472
5588 5587 5586 5584 5583 5582 5580 5579 5578 5576 5574 5573 5571 5569 5568 5566 5564 5562 5560 5559 5557 5555 5552 5550 5548 5546 5544 5542 5540 5539 5537 5535 5533 5530 5527 5525 5522 5519 5517 5516 5515 5513 5511 5509 5507 5505 5505 5504 5503 5501 5500 5499 5499 5498 5497 5496 5495 5495 5494 5494 5493 5492 5491 5491 5490 5489 5489 5488 5487 5485 5484 5483 5482 5481 5479 5478 5477 5475 5474 5473 5472 5471 5470 5469 5468 5468
5585 5584 5583 5581 5580 5579 5577 5576 5574 5573 5571 5569 5568 5565 5564 5562 5560 5558 5556 5554 5553 5550 5548 5546 5544 5541 5539 5537 5535 5533 5532 5530 5529 5526 5523 5520 5517 5514 5513 5511 5509 5508 5507 5504 5502 5500 5499 5499 5498 5497 5496 5495 5494 5493 5492 5492 5491 5490 5490 5489 5489 5488 5487 5486 5486 5485 5484 5483 5482 5481 5480 5479 5478 5477 5475 5474 5473 5471 5470 5469 5468 5467 5466 5465 5464 5464
5582 5581 5579 5578 5577 5575 5574 5572 5571 5569 5567 5566 5564 5562 5560 5558 5556 5554 5552 5550 5548 5546 5543 5541 5539 5536 5534 5532 5529 5527 5526 5525 5524 5521 5519 5516 5512 5509 5508 5506 5504 5503 5502 5501 5498 5496 5494 5494 5494 5493 5492 5490 5489 5489 5488 5487 5487 5486 5485 5485 5484 5483 5483 5482 5481 5481 5480 5479 5478 5477 5476 5475 5474 5473 5471 5470 5469 5468 5466 5465 5464 5463 5462 5461 5460 5460
5579 5578 5576 5575 5573 5572 5570 5569 5567 5565 5564 5562 5560 5558 5556 5554 5552 5549 5547 5545 5543 5541 5538 5536 5533 5531 5529 5527 5524 5521 5519 5519 5518 5516 5514 5511 5508 5505 5504 5502 5500 5498 5498 5497 5495 5492 5490 5489 5489 5489 5488 5486 5485 5484 5484 5483 5482 5482 5481 5480 5479 5479 5478 5478 5477 5476 5476 5475 5474 5473 5472 5471 5470 5469 5467 5466 5465 5464 5462 5461 5460 5459 5458 5457 5457 5456
5576 5575 5573 5571 5570 5568 5566 5565 5563 5562 5560 5558 5556 5554 5552 5550 5547 5545 5543 5540 5538 5536 5534 5531 5528 5526 5523 5521 5519 5516 5514 5512 5512 5510 5509 5507 5503 5500 5499 5498 5496 5494 5493 5493 5492 5489 5487 5484 5484 5484 5484 5482 5481 5480 5479 5479 5478 5478 5477 5476 5475 5474 5474 5474 5473 5472 5471 5471 5470 5469 5468 5467 5466 5464 5463 5462 5461 5459 5458 5457 5456 5455 5454 5454 5453 5452
5573 5572 5570 5568 5567 5565 5563 5561 5559 5558 5556 5554 5552 5550 5548 5546 5543 5541 5538 5536 5533 5531 5528 5526 5523 5520 5518 5515 5513 5511 5509 5507 5506 5504 5503 5501 5499 5496 5494 5493 5492 5490 5489 5488 5487 5486 5484 5482 5480 5479 5479 5478 5477 5476 5475 5474 5474 5473 5473 5472 5471 5470 5469 5469 5469 5468 5467 5467 5466 5465 5464 5463 5462 5460 5459 5458 5457 5455 5454 5453 5452 5451 5450 5450 5449 5449
5570 5569 5567 5565 5564 5562 5560 5558 5556 5554 5552 5550 5548 5546 5544 5541 5539 5536 5534 5531 5528 5525 5523 5520 5518 5515 5512 5509 5507 5505 5503 5501 5500 5499 5498 5496 5494 5492 5490 5489 5488 5486 5485 5484 5483 5483 5481 5479 5478 5476 5474 5473 5472 5472 5471 5470 5469 5469 5469 5468 5467 5466 5465 5465 5465 5464 5464 5463 5462 5461 5460 5459 5458 5457 5455 5454 5453 5452 5450 5449 5448 5447 5447 5446 5445 5445
5567 5566 5564 5562 5560 5558 5556 5554 5553 5550 5549 5546 5544 5542 5539 5537 5534 5531 5529 5525 5523 5520 5517 5514 5512 5509 5507 5504 5502 5499 5497 5495 5495 5494 5492 5491 5489 5488 5486 5484 5483 5482 5481 5480 5479 5479 5478 5476 5475 5474 5472 5470 5469 5467 5467 5466 5466 5465 5464 5464 5463 5462 5461 5461 5461 5460 5459 5459 5458 5457 5456 5455 5454 5453 5452 5450 5449 5448 5447 5446 5444 5444 5443 5443 5442 5442
5564 5563 5561 5559 5557 5555 5553 5551 5549 5547 5544 5542 5540 5537 5535 5532 5529 5526 5523 5520 5517 5514 5511 5509 5506 5504 5501 5499 5497 5494 5492 5490 5489 5488 5487 5486 5484 5483 5482 5480 5479 5478 5478 5476 5476 5475 5474 5473 5472 5471 5470 5468 5466 5464 5463 5463 5462 5461 5460 5459 5459 5458 5458 5457 5457 5456 5456 5455 5454 5453 5452 5451 5450 5449 5448 5447 5446 5444 5443 5442 5441 5440 5439 5439 5439 5438
5561 5559 5557 5555 5554 5551 5549 5547 5545 5543 5540 5538 5535 5533 5530 5527 5524 5521 5518 5515 5512 5509 5506 5503 5500 5498 5495 5493 5491 5489 5487 5485 5484 5483 5482 5481 5480 5479 5477 5476 5474 5474 5474 5473 5472 5471 5471 5470 5469 5468 5467 5466 5464 5463 5461 5460 5459 5458 5457 5456 5455 5454 5454 5454 5453 5453 5452 5451 5450 5450 5449 5448 5447 5446 5444 5444 5442 5441 5440 5439 5437 5436 5436 5435 5435 5434
5558 5556 5554 5552 5550 5548 5545 5543 5541 5539 5536 5534 5531 5528 5525 5522 5519 5516 5513 5509 5506 5504 5501 5498 5495 5492 5490 5488 5486 5484 5482 5480 5479 5478 5477 5476 5475 5474 5473 5472 5470 5469 5469 5469 5469 5468 5467 5467 5466 5465 5464 5463 5462 5461 5460 5458 5457 5455 5454 5453 5452 5451 5450 5450 5449 5449 5448 5448 5447 5446 5445 5444 5444 5442 5441 5440 5439 5437 5436 5435 5434 5433 5432 5432 5431 5431
5554 5553 5550 5549 5546 5544 5542 5539 5537 5534 5531 5529 5526 5523 5520 5517 5514 5510 5507 5504 5501 5498 5495 5493 5490 5487 5485 5483 5481 5479 5477 5475 5474 5473 5472 5471 5470 5469 5469 5468 5466 5465 5465 5465 5464 5464 5464 5463 5462 5461 5461 5460 5459 5459 5457 5456 5454 5453 5451 5450 5449 5448 5447 5446 5446 5445 5444 5444 5444 5443 5442 5441 5440 5439 5438 5437 5435 5434 5433 5431 5430 5429 5429 5428 5428 5427
5551 5549 5547 5545 5543 5540 5538 5535 5532 5529 5527 5524 5521 5518 5515 5512 5508 5505 5502 5499 5496 5494 5491 5488 5485 5482 5480 5478 5476 5474 5472 5471 5469 5468 5467 5466 5466 5465 5464 5463 5462 5462 5461 5460 5460 5460 5460 5459 5458 5458 5458 5457 5456 5455 5454 5453 5452 5450 5449 5448 5447 5446 5444 5443 5442 5441 5441 5440 5440 5439 5439 5438 5437 5436 5434 5433 5432 5431 5429 5428 5427 5426 5425 5424 5424 5424
5548 5545 5544 5541 5539 5536 5534 5531 5528 5525 5522 5519 5516 5513 5509 5506 5503 5500 5497 5494 5491 5488 5486 5483 5480 5477 5475 5473 5471 5469 5468 5466 5465 5464 5463 5462 5461 5460 5460 5459 5458 5458 5457 5456 5456 5456 5456 5455 5454 5454 5454 5453 5453 5452 5451 5450 5448 5447 5446 5445 5444 5444 5442 5440 5439 5438 5437 5437 5436 5436 5435 5434 5434 5433 5431 5430 5429 5427 5426 5425 5424 5423 5422 5421 5420 5420
5544 5542 5539 5537 5534 5532 5529 5527 5524 5521 5518 5514 5511 5508 5505 5501 5498 5495 5492 5489 5486 5484 5481 5478 5475 5473 5470 5468 5466 5464 5463 5462 5460 5459 5459 5458 5457 5456 5455 5455 5454 5454 5453 5453 5452 5452 5451 5451 5451 5450 5449 5449 5449 5448 5447 5446 5445 5444 5443 5442 5441 5441 5439 5438 5436 5435 5434 5433 5433 5432 5431 5431 5430 5429 5428 5426 5425 5424 5423 5421 5420 5419 5418 5417 5417 5416
5540 5538 5536 5533 5530 5528 5525 5522 5519 5516 5513 5509 5506 5503 5500 5497 5494 5490 5487 5484 5482 5479 5476 5474 5471 5468 5466 5463 5461 5459 5458 5457 5456 5455 5454 5453 5453 5452 5451 5450 5450 5449 5449 5449 5448 5448 5447 5447 5447 5446 5446 5445 5445 5444 5443 5442 5441 5440 5439 5438 5438 5437 5436 5434 5433 5432 5431 5430 5429 5428 5428 5427 5426 5425 5424 5423 5422 5420 5419 5418 5417 5416 5415 5414 5413 5413
5536 5534 5532 5529 5526 5524 5521 5518 5515 5512 5509 5505 5502 5498 5495 5492 5489 5486 5483 5480 5477 5474 5472 5469 5466 5464 5461 5459 5457 5455 5453 5452 5451 5450 5450 5449 5448 5448 5447 5446 5446 5445 5445 5445 5444 5444 5444 5443 5443 5442 5441 5441 5441 5440 5439 5438 5437 5436 5435 5434 5434 5433 5432 5431 5429 5429 5427 5426 5425 5425 5424 5424 5423 5422 5421 5420 5418 5417 5416 5414 5413 5412 5411 5410 5410 5409
5532 5530 5528 5525 5522 5519 5517 5514 5510 5507 5504 5500 5497 5494 5490 5487 5484 5481 5479 5476 5473 5470 5467 5464 5462 5459 5457 5454 5453 5451 5449 5448 5447 5446 5445 5444 5444 5444 5443 5442 5442 5441 5441 5441 5440 5440 5439 5439 5439 5438 5437 5437 5436 5436 5435 5434 5433 5433 5432 5431 5430 5429 5428 5427 5426 5425 5424 5423 5422 5421 5420 5419 5419 5418 5417 5416 5415 5414 5412 5411 5410 5409 5408 5407 5406 5406
5529 5526 5524 5521 5518 5515 5513 5509 5506 5503 5499 5496 5493 5489 5486 5483 5480 5477 5474 5472 5469 5465 5463 5460 5458 5455 5453 5450 5449 5447 5445 5443 5442 5441 5441 5440 5439 5439 5439 5438 5438 5437 5437 5436 5436 5436 5435 5435 5434 5434 5433 5433 5432 5431 5431 5430 5429 5428 5428 5427 5426 5425 5424 5423 5422 5421 5420 5419 5418 5417 5416 5416 5415 5414 5414 5413 5412 5410 5409 5408 5407 5405 5404 5403 5403 5402
5524 5522 5519 5517 5514 5511 5508 5505 5502 5498 5495 5492 5489 5485 5482 5479 5476 5473 5470 5468 5465 5462 5459 5456 5454 5451 5449 5446 5444 5443 5441 5439 5438 5437 5436 5436 5435 5435 5434 5434 5433 5433 5433 5432 5432 5431 5431 5430 5430 5429 5429 5428 5428 5427 5426 5426 5425 5424 5424 5423 5422 5421 5420 5419 5418 5417 5416 5415 5414 5413 5413 5412 5411 5411 5410 5409 5409 5407 5406 5404 5403 5402 5400 5399 5399 5399
5520 5518 5515 5513 5510 5507 5504 5501 5497 5494 5491 5487 5484 5481 5478 5475 5473 5470 5467 5464 5461 5458 5455 5452 5449 5447 5445 5443 5441 5439 5438 5436 5434 5434 5433 5432 5431 5430 5430 5429 5429 5429 5428 5428 5428 5427 5427 5426 5426 5425 5424 5424 5423 5422 5422 5421 5421 5420 5419 5419 5418 5417 5416 5415 5414 5412 5412 5411 5410 5409 5409 5408 5407 5407 5406 5405 5405 5404 5403 5401 5399 5398 5397 5396 5395 5395
5517 5514 5511 5509 5506 5503 5500 5496 5493 5490 5486 5483 5480 5477 5474 5471 5469 5466 5463 5460 5457 5454 5451 5449 5446 5443 5441 5439 5437 5436 5434 5433 5431 5430 5429 5428 5427 5426 5425 5425 5424 5424 5424 5424 5423 5423 5422 5422 5421 5421 5420 5419 5419 5418 5418 5417 5417 5416 5415 5414 5413 5412 5411 5410 5409 5408 5407 5407 5406 5405 5404 5403 5403 5402 5402 5401 5400 5400 5399 5398 5396 5394 5393 5392 5391 5391
5513 5510 5507 5504 5502 5499 5495 5492 5489 5485 5482 5479 5476 5473 5470 5467 5465 5462 5459 5456 5453 5450 5448 5445 5442 5440 5438 5435 5434 5432 5431 5429 5428 5427 5425 5424 5423 5422 5421 5421 5420 5420 5420 5419 5419 5419 5419 5418 5417 5416 5416 5414 5414 5413 5413 5413 5412 5411 5410 5409 5408 5408 5407 5406 5405 5404 5403 5402 5402 5401 5400 5399 5398 5398 5397 5397 5396 5396 5395 5394 5393 5391 5389 5388 5388 5387
5509 5506 5504 5501 5498 5494 5491 5488 5485 5481 5478 5475 5472 5469 5467 5464 5461 5458 5455 5453 5450 5447 5444 5441 5439 5437 5434 5432 5430 5429 5428 5426 5425 5423 5422 5421 5420 5419 5418 5417 5417 5416 5416 5415 5415 5415 5415 5414 5414 5412 5411 5410 5409 5409 5409 5408 5408 5407 5406 5405 5404 5403 5402 5401 5400 5400 5399 5398 5397 5397 5396 5395 5394 5393 5393 5392 5392 5391 5391 5390 5389 5388 5386 5384 5384 5384